Simultaneous Nadir Overpasses (SNOs) Predictions

Prediction of SNOs between AURA and NPP Satellite Orbit:

Table of predicted SNOs for the next 14.0 days since TLE Epoch: 12/8/2012
Index Date (AURA) Time (AURA) AURA Lat,Lon Date (NPP) Time (NPP) NPP Lat,Lon Distance(km) Time Diff (sec)
1 12/10/2012 04:30:45 79.70, 10.50 12/10/2012 04:30:11 79.69, 10.37 2.74 34
2 12/10/2012 05:20:06 -79.92, 179.85 12/10/2012 05:20:49 -79.91, 179.78 1.58 43
3 12/12/2012 20:47:10 79.84, 127.48 12/12/2012 20:47:01 79.85, 127.59 2.24 9
4 12/12/2012 21:36:32 -80.02, -63.41 12/12/2012 21:37:40 -80.03, -63.25 3.18 68
5 12/15/2012 12:14:18 -79.62, 74.03 12/15/2012 12:13:18 -79.61, 73.91 2.46 60
6 12/15/2012 13:03:36 79.90,-116.18 12/15/2012 13:03:53 79.91,-116.04 2.84 17
7 12/18/2012 04:30:43 -79.74,-169.16 12/18/2012 04:30:09 -79.74,-169.16 0.18 34
8 12/18/2012 05:20:04 79.91, -0.19 12/18/2012 05:20:48 79.91, -0.23 0.97 44
9 12/20/2012 20:47:10 -79.79, -52.96 12/20/2012 20:47:03 -79.78, -53.06 2.10 7




NCC Satellite Simultaneous Nadir Overpasses (SNOs) Prediction Service
